Weather History for Baker, MT

Change the Weather History Date:

Tuesday, January 29, 2013

  Actual Average Record
Temperature  
Mean Temperature 10 °F -  
Max Temperature 27 °F 38 °F 50 °F (2012)
Min Temperature -8 °F 5 °F -23 °F (2004)
Degree Days  
Heating Degree Days 55    
Moisture  
Dew Point 4 °F    
Average Humidity 76    
Maximum Humidity 85    
Minimum Humidity 63    
Precipitation  
Precipitation 0.00 in - - ()
Sea Level Pressure  
Sea Level Pressure 29.94 in    
Wind  
Wind Speed 9 mph (NW)    
Max Wind Speed 25 mph    
Max Gust Speed 34 mph    
Visibility 5 miles    
Events Snow    
Averages and records for this station are not official NWS values.
T = Trace of Precipitation, MM = Missing Value Source: NWS Daily Summary

Daily Weather History Graph

Daily Weather History Graph

Search for Another Location

Airport:

Trip Planner

Search our weather history database for the weather conditions in past years. The results will help you decide how hot, cold, wet, or windy it might be!

Date:

Astronomy

Jan. 29, 2013 Rise Set
Actual Time 7:23 AM MST 4:57 PM MST
Civil Twilight 6:51 AM MST 5:30 PM MST
Nautical Twilight 6:14 AM MST 6:06 PM MST
Astronomical Twilight 5:39 AM MST 6:41 PM MST
Moon 8:10 PM MST 8:09 AM MST
Length of Visible Light 10h 38m
Length of Day
9h 34m
Waning Gibbous, 93% of the Moon is Illuminated
Jan 29
Waning Gibbous
Feb 3
Last Quarter
Feb 10
New
Feb 17
First Quarter
Feb 25
Full

Hourly Weather History & Observations

Time (MST) Temp. Windchill Dew Point Humidity Pressure Visibility Wind Dir Wind Speed Gust Speed Precip Events Conditions
12:51 AM 16.0 °F - 10.9 °F 81% 29.77 in 10.0 mi Calm Calm - N/A   Clear
1:27 AM 10.4 °F - 6.8 °F 85% 29.67 in 1.8 mi Calm Calm - N/A   Clear
1:39 AM 12.2 °F - 6.8 °F 79% 29.67 in 3.0 mi Calm Calm - N/A   Haze
1:51 AM 10.9 °F - 6.1 °F 81% 29.78 in 10.0 mi Calm Calm - N/A   Clear
2:48 AM 12.2 °F - 8.6 °F 85% 29.67 in 1.8 mi Calm Calm - N/A   Clear
2:51 AM 12.9 °F - 8.1 °F 81% 29.76 in 1.5 mi Calm Calm - N/A   Haze
3:01 AM 12.2 °F - 8.6 °F 85% 29.66 in 2.5 mi Calm Calm - N/A   Clear
3:08 AM 8.6 °F - 5.0 °F 85% 29.66 in 7.0 mi Calm Calm - N/A   Clear
3:13 AM 8.6 °F - 3.2 °F 79% 29.66 in 1.5 mi Calm Calm - N/A   Haze
3:24 AM 6.8 °F - 1.4 °F 79% 29.66 in 4.0 mi Calm Calm - N/A   Haze
3:51 AM 10.0 °F - 5.0 °F 80% 29.77 in 10.0 mi Calm Calm - N/A   Clear
4:05 AM 6.8 °F - 1.4 °F 79% 29.66 in 5.0 mi Calm Calm - N/A   Partly Cloudy
4:10 AM 6.8 °F - 1.4 °F 79% 29.66 in 1.8 mi Calm Calm - N/A   Haze
4:19 AM 5.0 °F - 1.4 °F 85% 29.66 in 3.0 mi Calm Calm - N/A   Partly Cloudy
4:51 AM 7.0 °F - 1.9 °F 80% 29.78 in 10.0 mi Calm Calm - N/A   Clear
5:51 AM 7.0 °F 0.1 °F 1.0 °F 77% 29.79 in 10.0 mi West 3.5 mph - N/A   Clear
6:51 AM 9.0 °F - 3.9 °F 80% 29.80 in 10.0 mi Calm Calm - N/A   Clear
7:51 AM 12.9 °F 6.9 °F 7.0 °F 77% 29.81 in 10.0 mi NW 3.5 mph - N/A   Clear
8:51 AM 21.0 °F 9.9 °F 14.0 °F 74% 29.81 in 10.0 mi WSW 10.4 mph - N/A   Mostly Cloudy
9:51 AM 24.1 °F 15.2 °F 15.1 °F 69% 29.83 in 10.0 mi WNW 8.1 mph - N/A   Overcast
10:51 AM 26.1 °F 15.0 °F 16.0 °F 66% 29.85 in 10.0 mi WNW 12.7 mph 18.4 mph N/A   Clear
11:51 AM 27.0 °F 15.6 °F 16.0 °F 63% 29.88 in 10.0 mi NW 13.8 mph - N/A   Partly Cloudy
12:31 PM 26.6 °F 12.7 °F 17.6 °F 69% 29.80 in 10.0 mi NW 20.7 mph - N/A   Mostly Cloudy
12:51 PM 24.1 °F 12.5 °F 17.1 °F 75% 29.92 in 10.0 mi NW 12.7 mph - N/A   Mostly Cloudy
1:28 PM 23.0 °F 7.6 °F 17.6 °F 80% 29.82 in 10.0 mi NW 21.9 mph 27.6 mph N/A   Overcast
2:13 PM 17.6 °F 0.9 °F 12.2 °F 79% 29.87 in 2.0 mi NNW 20.7 mph - 0.00 in Snow Light Snow
2:24 PM 17.6 °F 1.3 °F 10.4 °F 73% 29.89 in 3.0 mi NNW 19.6 mph 27.6 mph 0.00 in Snow Light Snow
2:31 PM 17.6 °F 0.9 °F 10.4 °F 73% 29.89 in 2.0 mi NNW 20.7 mph 25.3 mph 0.00 in Snow Light Snow
2:36 PM 17.6 °F 2.2 °F 8.6 °F 68% 29.90 in 1.0 mi NNW 17.3 mph - 0.00 in Snow Light Snow
2:40 PM 17.6 °F 2.7 °F 10.4 °F 73% 29.91 in 0.5 mi NNW 16.1 mph 24.2 mph 0.00 in Snow Snow
2:45 PM 17.6 °F 0.9 °F 10.4 °F 73% 29.91 in 0.5 mi NNW 20.7 mph 24.2 mph 0.00 in Snow Snow
2:51 PM 17.1 °F 1.0 °F 10.0 °F 74% 30.06 in 1.2 mi NNW 18.4 mph - 0.00 in Snow Light Snow
2:56 PM 17.6 °F 1.3 °F 10.4 °F 73% 29.92 in 1.5 mi NNW 19.6 mph - 0.00 in Snow Light Snow
3:04 PM 17.6 °F 2.7 °F 10.4 °F 73% 29.93 in 2.0 mi NW 16.1 mph - 0.00 in Snow Light Snow
3:11 PM 17.6 °F 2.7 °F 10.4 °F 73% 29.93 in 4.0 mi NW 16.1 mph - 0.00 in Snow Light Snow
3:29 PM 15.8 °F 0.9 °F 10.4 °F 79% 29.95 in 1.8 mi NNW 15.0 mph 24.2 mph 0.00 in Snow Light Snow
3:48 PM 15.8 °F -2.3 °F 10.4 °F 79% 29.96 in 1.2 mi NNW 23.0 mph 29.9 mph 0.00 in Snow Light Snow
3:51 PM 16.0 °F -2.1 °F 9.0 °F 74% 30.11 in 1.5 mi NNW 23.0 mph 29.9 mph 0.00 in Snow Light Snow
3:59 PM 15.8 °F -1.1 °F 8.6 °F 73% 29.97 in 3.0 mi NNW 19.6 mph 27.6 mph 0.00 in Snow Light Snow
4:17 PM 15.8 °F -1.1 °F 8.6 °F 73% 29.98 in 1.8 mi NW 19.6 mph 25.3 mph 0.00 in Snow Light Snow
4:51 PM 12.9 °F -6.9 °F 6.1 °F 74% 30.16 in 2.0 mi NW 25.3 mph 34.5 mph 0.00 in Snow Light Snow
5:06 PM 10.4 °F -9.5 °F 3.2 °F 73% 30.01 in 1.2 mi NW 23.0 mph 31.1 mph 0.00 in Snow Light Snow
5:20 PM 8.6 °F -11.9 °F 1.4 °F 73% 30.03 in 1.5 mi NW 23.0 mph 31.1 mph 0.00 in Snow Light Snow
5:34 PM 8.6 °F -11.4 °F 1.4 °F 73% 30.04 in 2.5 mi NW 21.9 mph 29.9 mph 0.00 in Snow Light Snow
5:38 PM 6.8 °F -13.4 °F 1.4 °F 79% 30.05 in 3.0 mi NW 20.7 mph 28.8 mph 0.00 in Snow Light Snow
5:51 PM 7.0 °F -14.5 °F -0.0 °F 73% 30.23 in 3.0 mi NW 24.2 mph 29.9 mph 0.00 in Snow Light Snow
6:02 PM 6.8 °F -12.4 °F -0.4 °F 72% 30.06 in 2.0 mi WNW 18.4 mph 28.8 mph 0.00 in Snow Light Snow
6:08 PM 6.8 °F -12.9 °F -0.4 °F 72% 30.06 in 1.5 mi NW 19.6 mph 26.5 mph 0.00 in Snow Light Snow
6:23 PM 5.0 °F -16.2 °F -2.2 °F 72% 30.07 in 2.0 mi NW 21.9 mph 28.8 mph 0.00 in Snow Light Snow
6:34 PM 3.2 °F -17.1 °F -2.2 °F 78% 30.08 in 2.5 mi NW 18.4 mph 25.3 mph 0.00 in Snow Light Snow
6:51 PM 3.0 °F -16.7 °F -4.0 °F 73% 30.27 in 2.0 mi WNW 17.3 mph 24.2 mph 0.00 in Snow Light Snow
6:56 PM 3.2 °F -17.6 °F -4.0 °F 72% 30.08 in 1.8 mi WNW 19.6 mph 25.3 mph 0.00 in Snow Light Snow
7:14 PM 1.4 °F -21.9 °F -5.8 °F 72% 30.09 in 3.0 mi NW 24.2 mph 29.9 mph 0.00 in Snow Light Snow
7:31 PM 1.4 °F -21.0 °F -5.8 °F 72% 30.09 in 4.0 mi NW 21.9 mph 29.9 mph 0.00 in Snow Light Snow
7:36 PM 1.4 °F -19.9 °F -5.8 °F 72% 30.10 in 3.0 mi WNW 19.6 mph 28.8 mph 0.00 in Snow Light Snow
7:51 PM 1.0 °F -19.9 °F -6.0 °F 72% 30.28 in 8.0 mi NW 18.4 mph 27.6 mph 0.00 in Snow Light Snow
8:51 PM -2.9 °F -23.1 °F -9.9 °F 72% 30.28 in 10.0 mi WNW 15.0 mph - 0.00 in   Overcast
9:51 PM -6.0 °F -25.5 °F -13.0 °F 72% 30.27 in 10.0 mi West 12.7 mph - N/A   Clear
10:12 PM -7.6 °F -29.1 °F -13.0 °F 77% 30.09 in 10.0 mi WNW 15.0 mph - N/A   Mostly Cloudy
10:20 PM -7.6 °F -28.3 °F -13.0 °F 77% 30.09 in 10.0 mi West 13.8 mph - N/A   Mostly Cloudy
10:44 PM -7.6 °F -25.7 °F -13.0 °F 77% 30.08 in 10.0 mi West 10.4 mph - N/A   Scattered Clouds
10:51 PM -7.1 °F -28.4 °F -14.1 °F 72% 30.24 in 10.0 mi WNW 15.0 mph - N/A   Partly Cloudy
11:51 PM -8.0 °F -23.9 °F -14.1 °F 75% 30.22 in 10.0 mi West 8.1 mph - N/A   Partly Cloudy